Tracking 19564 objects as of 18-Mar-2019
HD Live streaming from Space Station
objects crossing your sky now

OPS 6983 (DMSP 5C F1)

Track OPS 6983 (DMSP 5C F1) now!
10-day predictions
OPS 6983 (DMSP 5C F1) is classified as:


NORAD ID: 7411
Int'l Code: 1974-063A
Perigee: 776.4 km
Apogee: 835.7 km
Inclination: 98.7 °
Period: 100.9 minutes
Semi major axis: 7177 km
RCS: 1.494 m2 (large)
Launch date: August 9, 1974
Source: United States (US)
Launch site: AIR FORCE WESTERN TEST RANGE (AFWTR)
aabbcc
Your satellite tracking list
Your tracking list is empty




NASA's NSSDC Master Catalog

Two Line Element Set (TLE):
1  7411U 74063A   19076.65375876  .00000047  00000-0  36886-4 0  9999
2  7411  98.7201 272.4815 0041361 202.2463 157.6925 14.27851879316518
Source of the keplerian elements: AFSPC